Change the Weather History Date:

Sunday, May 5, 2013

  Actual Average (KJFX) Record (KJFX)
Temperature  
Mean Temperature 46 °F -  
Max Temperature 50 °F 77 °F 89 °F (2014)
Min Temperature 41 °F 48 °F 34 °F (1971)
Degree Days  
Heating Degree Days 20    
Moisture  
Dew Point 45 °F    
Average Humidity 93    
Maximum Humidity 100    
Minimum Humidity 86    
Precipitation  
Precipitation 0.16 in - - ()
Sea Level Pressure  
Sea Level Pressure 29.91 in    
Wind  
Wind Speed 2 mph (NW)    
Max Wind Speed 9 mph    
Max Gust Speed -    
Visibility 8 miles    
Events Rain    
Averages and records for this station are not official NWS values.
T = Trace of Precipitation, MM = Missing Value Source: NWS Daily Summary

Daily Weather History Graph

Daily Weather History Graph

Search for Another Location

Airport or City:

Trip Planner

Search our weather history database for the weather conditions in past years. The results will help you decide how hot, cold, wet, or windy it might be!

Date:

Astronomy

May. 05, 2013 Rise Set
Actual Time 5:56 AM CDT 7:38 PM CDT
Civil Twilight 5:29 AM CDT 8:05 PM CDT
Nautical Twilight 4:56 AM CDT 8:37 PM CDT
Astronomical Twilight 4:22 AM CDT 9:12 PM CDT
Moon 3:15 AM CDT (5/5) 3:46 PM CDT (5/5)
Length of Visible Light 14h 35m
Length of Day
13h 41m
Waning Crescent, 18% of the Moon is Illuminated
May 5
Waning Crescent
May 9
New
May 17
First Quarter
May 24
Full
May 31
Last Quarter

Hourly Weather History & Observations

Time (CDT) Temp. Windchill Dew Point Humidity Pressure Visibility Wind Dir Wind Speed Gust Speed Precip Events Conditions
12:56 AM 43.0 °F - 43.0 °F 100% 29.98 in 10.0 mi Calm Calm - N/A   Clear
1:56 AM 41.0 °F - 41.0 °F 100% 29.95 in 8.0 mi Calm Calm - N/A   Clear
2:56 AM 41.9 °F - 41.9 °F 100% 29.93 in 8.0 mi Calm Calm - N/A   Clear
3:56 AM 41.9 °F - 41.9 °F 100% 29.91 in 6.0 mi Calm Calm - N/A   Partly Cloudy
4:56 AM 43.0 °F - 43.0 °F 100% 29.91 in 5.0 mi Calm Calm - N/A   Partly Cloudy
5:56 AM 43.9 °F - 43.9 °F 100% 29.91 in 5.0 mi Calm Calm - 0.00 in Rain Light Rain
6:18 AM 44.6 °F - 44.6 °F 100% 29.88 in 5.0 mi Calm Calm - 0.00 in Rain Light Rain
6:38 AM 44.6 °F - 44.6 °F 100% 29.87 in 3.0 mi Calm Calm - 0.01 in Rain Light Rain
6:47 AM 44.6 °F - 44.6 °F 100% 29.87 in 5.0 mi Calm Calm - 0.01 in Rain Light Rain
6:56 AM 43.9 °F 39.9 °F 43.9 °F 100% 29.91 in 7.0 mi ENE 6.9 mph - 0.01 in   Scattered Clouds
7:56 AM 45.0 °F - 45.0 °F 100% 29.90 in 9.0 mi Calm Calm - 0.00 in   Mostly Cloudy
8:56 AM 47.8 °F - 43.9 °F 86% 29.92 in 10.0 mi Calm Calm - N/A   Mostly Cloudy
9:56 AM 47.8 °F - 43.9 °F 86% 29.92 in 10.0 mi Calm Calm - 0.00 in Rain Light Rain
10:56 AM 48.9 °F - 45.0 °F 86% 29.93 in 10.0 mi North 4.6 mph - 0.00 in   Overcast
11:31 AM 48.2 °F - 44.6 °F 87% 29.89 in 8.0 mi North 5.8 mph - 0.00 in Rain Light Rain
11:40 AM 48.2 °F - 44.6 °F 87% 29.89 in 9.0 mi NNW 5.8 mph - 0.00 in Rain Light Rain
11:56 AM 48.9 °F - 45.0 °F 86% 29.94 in 10.0 mi Calm Calm - 0.00 in Rain Light Rain
12:40 PM 48.2 °F - 46.4 °F 93% 29.89 in 10.0 mi Calm Calm - 0.00 in   Overcast
12:56 PM 48.9 °F - 45.9 °F 89% 29.93 in 10.0 mi North 6.9 mph - 0.00 in   Overcast
1:06 PM 48.2 °F - 44.6 °F 87% 29.89 in 10.0 mi NNW 5.8 mph - N/A   Overcast
1:56 PM 48.9 °F - 45.9 °F 89% 29.93 in 5.0 mi NNW 6.9 mph - 0.01 in Rain Heavy Rain
2:01 PM 48.2 °F - 46.4 °F 93% 29.89 in 2.5 mi North 5.8 mph - 0.01 in Rain Heavy Rain
2:10 PM 48.2 °F - 46.4 °F 93% 29.89 in 1.8 mi NNW 6.9 mph - 0.05 in Rain Heavy Rain
2:15 PM 48.2 °F - 46.4 °F 93% 29.89 in 1.0 mi Calm Calm - 0.08 in Rain Heavy Rain
2:21 PM 48.2 °F - 46.4 °F 93% 29.89 in 1.5 mi Calm Calm - 0.09 in Rain Heavy Rain
2:37 PM 48.2 °F - 46.4 °F 93% 29.89 in 3.0 mi NNW 8.1 mph - 0.11 in Rain Rain
2:56 PM 48.9 °F - 46.9 °F 93% 29.93 in 4.0 mi NNW 3.5 mph - 0.12 in Rain Rain
3:09 PM 48.2 °F - 46.4 °F 93% 29.88 in 4.0 mi NW 6.9 mph - 0.01 in Rain Light Rain
3:56 PM 50.0 °F - 47.8 °F 92% 29.92 in 5.0 mi NW 9.2 mph - 0.01 in Rain Rain
4:56 PM 50.0 °F - 45.9 °F 86% 29.93 in 10.0 mi NW 9.2 mph - 0.01 in   Mostly Cloudy
5:56 PM 50.0 °F - 46.9 °F 89% 29.93 in 9.0 mi NW 6.9 mph - N/A   Mostly Cloudy
6:56 PM 48.9 °F - 46.9 °F 93% 29.94 in 10.0 mi WSW 3.5 mph - N/A   Overcast
7:56 PM 48.9 °F - 46.9 °F 93% 29.94 in 10.0 mi West 6.9 mph - N/A   Mostly Cloudy
8:22 PM 48.2 °F - 46.4 °F 93% 29.90 in 10.0 mi West 6.9 mph - N/A   Mostly Cloudy
8:33 PM 48.2 °F - 46.4 °F 93% 29.90 in 10.0 mi West 4.6 mph - N/A   Mostly Cloudy
8:42 PM 48.2 °F - 46.4 °F 93% 29.90 in 10.0 mi West 8.1 mph - N/A   Mostly Cloudy
8:45 PM 48.2 °F - 46.4 °F 93% 29.90 in 10.0 mi WSW 5.8 mph - N/A   Mostly Cloudy
8:56 PM 48.9 °F - 46.9 °F 93% 29.94 in 10.0 mi West 6.9 mph - N/A   Overcast
9:04 PM 48.2 °F - 46.4 °F 93% 29.89 in 10.0 mi West 8.1 mph - N/A   Mostly Cloudy
9:56 PM 47.8 °F - 46.9 °F 97% 29.94 in 10.0 mi West 4.6 mph - N/A   Scattered Clouds
10:06 PM 48.2 °F - 46.4 °F 93% 29.90 in 10.0 mi Variable 4.6 mph - N/A   Mostly Cloudy
10:38 PM 48.2 °F - 46.4 °F 93% 29.90 in 10.0 mi Variable 3.5 mph - N/A   Partly Cloudy
10:56 PM 47.8 °F - 45.9 °F 93% 29.94 in 10.0 mi Calm Calm - N/A   Scattered Clouds
11:08 PM 48.2 °F - 46.4 °F 93% 29.90 in 10.0 mi Calm Calm - N/A   Mostly Cloudy
11:34 PM 48.2 °F - 46.4 °F 93% 29.90 in 10.0 mi Variable 4.6 mph - N/A   Overcast
11:56 PM 46.9 °F - 45.9 °F 96% 29.94 in 10.0 mi Calm Calm - N/A   Mostly Cloudy